This demonstration page uses our WeatherBlox Daily Observations layout. Learn more.

Left ArrowRight Arrow

Hourly Observations for January 29, 2016

Temp ( °F °C ) Dew Point ( °F °C ) Humidity (%) Winds ( mph kmh ) Pressure ( in mb ) Visibility ( mi km ) Precip ( " mm )
12:54 am 00:54 Clear 29 -1.7 26 -3.3 89 89 SSE 3 6 29.93 1013 10 16 0.00 0.00
1:54 am 01:54 Clear 28 -2.2 26 -3.3 92 92 S 7 11 29.90 1013 10 16 0.00 0.00
2:54 am 02:54 Clear 30 -1.1 26 -3.3 85 85 SSE 7 11 29.88 1012 10 16 0.00 0.00
3:54 am 03:54 Clear 30 -1.1 27 -2.8 88 88 SSE 9 15 29.85 1011 10 16 0.00 0.00
4:54 am 04:54 Clear 30 -1.1 27 -2.8 88 88 SSE 8 13 29.83 1010 10 16 0.00 0.00
5:54 am 05:54 Clear 31 -0.6 27 -2.8 85 85 SSE 8 13 29.81 1010 10 16 0.00 0.00
6:54 am 06:54 Clear 31 -0.6 27 -2.8 85 85 SSE 7 11 29.80 1009 10 16 0.00 0.00
7:54 am 07:54 Sunny 31 -0.6 27 -2.8 85 85 undefined N/A 29.79 1009 10 16 0.00 0.00
8:54 am 08:54 Sunny 35 1.7 30 -1.1 82 82 S 8 13 29.77 1008 10 16 0.00 0.00
9:54 am 09:54 Sunny 40 4.4 32 0 73 73 S 8 13 29.75 1008 10 16 0.00 0.00
10:54 am 10:54 Sunny 44 6.7 34 1.1 68 68 SSW 16 26 29.72 1006 10 16 0.00 0.00
11:54 am 11:54 Sunny 47 8.3 35 1.7 63 63 SSW 10 17 29.70 1006 10 16 0.00 0.00
12:54 pm 12:54 Sunny 48 8.9 35 1.7 61 61 SW 14 22 29.67 1005 10 16 0.00 0.00
1:54 pm 13:54 Sunny 50 10 35 1.7 57 57 SW 8 13 29.64 1004 10 16 0.00 0.00
2:54 pm 14:54 Sunny 50 10 36 2.2 59 59 SW 8 13 29.65 1004 10 16 0.00 0.00
3:54 pm 15:54 Sunny 49 9.4 36 2.2 61 61 SW 6 9 29.66 1004 10 16 0.00 0.00
4:54 pm 16:54 Sunny 51 10.6 38 3.3 61 61 WNW 8 13 29.70 1006 10 16 0.00 0.00
5:54 pm 17:54 Clear 47 8.3 34 1.1 61 61 NW 8 13 29.72 1007 10 16 0.00 0.00
6:54 pm 18:54 Clear 42 5.6 33 0.6 71 71 WSW 3 6 29.75 1007 10 16 0.00 0.00
7:54 pm 19:54 Clear 37 2.8 32 0 82 82 Calm 29.76 1008 10 16 0.00 0.00
8:54 pm 20:54 Clear 35 1.7 31 -0.6 85 85 NW 3 6 29.77 1008 10 16 0.00 0.00
9:54 pm 21:54 Clear 30 -1.1 27 -2.8 88 88 Calm 29.76 1008 10 16 0.00 0.00
10:54 pm 22:54 Clear 31 -0.6 28 -2.2 89 89 Calm 29.77 1008 10 16 0.00 0.00
11:54 pm 23:54 Clear 30 -1.1 27 -2.8 88 88 Calm 29.73 1007 10 16 0.00 0.00

Powered by AerisWeather